COSMOS 2251 DEB, 37499

Orbit data source: Space-Track

COSMOS 2251 DEB, 37499 is space debris in LEO originally from a launch on Wed, 16 Jun 1993 UTC launched from the Plesetsk Missile And Space Complex (PKMTR). The debris from Iridium 33, an American commercial communications satellite, has been tracked extensively since its accidental collision with the defunct Russian satellite Cosmos 2251 in 2009. This event, occurring at high speed in low Earth orbit (LEO), generated thousands of pieces of space debris, significantly increasing the risk of further collisions. The Iridium 33 debris cloud has impacted space traffic management and orbital debris mitigation strategies, making it a subject of ongoing study in space situational awareness.

Loading next visibility...
Identifier
37499, 1993-036BMC
Orbit
LEO
Country
Flag of CISCIS
Related business
Manufacturer
Unknown
Mission
Spacecraft
Bus & Motor
Unknown
Mass
Unknown
Launch date (UTC)
1993-06-16 (33 years ago)
Launch vehicle
Unknown
Launch site
Plesetsk Missile And Space Complex (PKMTR)
Object type
Payload
Rocket body
Debris
Shape & HBR
Unknown shape, 0.1 m
Radar Cross Section
Small (<0.1 m²)

Expand to show TLE details & history
Last TLE update: 8 hours ago

TLE from 8 hours ago
0 COSMOS 2251 DEB
1 37499U 93036BMC 26248.27946964  .00000163  00000-0  66581-4 0  9992
2 37499  74.0378 194.1455 0028625 210.0003 149.9510 14.34542370889716
Epoch: 2026-09-05T06:42Z
TLE epoch observation values (Epoch: 2026-09-05T06:42:26.176Z)
Latitude
-0.00009°
Longitude
109.14519°
Altitude
796.942 km
Speed
7.446 km/s
True Right ascension
12h 56m 34s
True Declination
0° 00' 00"
Sunlit
Object was in daylight at epoch
Visualization orbit readout
Latitude
Unknown
Longitude
Unknown
Altitude
Unknown
Speed
Unknown
Apparent Right ascension
Unknown
Apparent Declination
Unknown
Sunlit
N/A
Visualization observer readout
Local Sidereal Time
06:22:23
Azimuth
Unknown
Elevation
Unknown
Doppler factor
Unknown
Orbital elements
Apogee altitude
794.687 km
Perigee altitude
753.739 km
Semi-major axis
7,152.35 km
Eccentricity
0.00286
Inclination
74.0378°
RAAN
194.1455°
Arg. of periapsis
210.0003°
True anomaly
150.11474°
Mean anomaly
149.951°
Eccentric anomaly
150.03292°
Mean motion
3.58815 °/min
Orbital period
100.33 mins
BSTAR
0.000066581
Loading maneuver chart data...
Computing Atmospheric mass density...

Documentation

Showing up to 5 results
|